Location: Tucson
(32.2217°N, 110.9265°W)
Time: 07:59:35
(UTC-07:00)

Tiros 1 - Pass Details

Date: 02 November 2021
Orbit: 629 x 664 km, 48.4° (Epoch: 27 November)

Event Time Altitude Azimuth Distance (km) Brightness Sun altitude
Rises 07:10:59 0° 257° (WSW) 2,984 10.0 5.0°
Reaches altitude 10° 07:13:34 10° 268° (W) 2,074 9.2 5.5°
Maximum altitude 07:17:48 30° 330° (NNW) 1,172 8.2 6.3°
Drops below altitude 10° 07:22:02 10° 32° (NNE) 2,075 9.9 7.1°
Sets 07:24:37 0° 44° (NE) 2,985 10.9 7.7°
